Flag for U.S.A. Weather past 2 weeks in Mason, Ohio, U.S.A.

Now
53 °F

Clear.


Feels Like: 53 °F
Forecast: 49 / 74 °F
Wind: No wind

Location: Butler County Regional Airport

Current Time: Sep 18, 2014 at 10:56:42 PM

Latest Report: Sep 18, 2014 at 9:53 PM


Visibility: 10 mi

Pressure: 30.12 "Hg

Humidity: 93%

Dew point: 51 °F

Location of MasonLocation

Historic Weather in Mason — Graph

°F

Mason temperature yesterday

Maximum temperature yesterday: 67 °F (at 4:53 PM)
Minimum temperature yesterday: 46 °F (at 3:53 AM)
Average temperature yesterday: 55 °F

Past Weeks' High & Low Weather Summary

 TemperatureHumidityPressure
High92 °F (Sep 5, 3:53 PM)100% (Sep 5, 1:53 AM)30.34 "Hg (Sep 5, 1:53 AM)
Low43 °F (Sep 14, 6:53 AM)36% (Sep 9, 3:53 PM)29.75 "Hg (Sep 10, 7:53 PM)
Average65 °F79%30.10 "Hg
* Reported Sep 3 9:53 PM — Sep 18 9:53 PM, Mason, Weather by CustomWeather, © 2014

Note: Actual official high and low records may vary slightly from our data, if they occured in-between our weather recording intervals... More about our weather records

Advertising

Mason weather history for previous 24 hours

 ConditionsComfort  
Time TempWeatherWind HumidityBarometerVisibility
9:53 PM
Sep 18
53 °FClear.No wind93%30.12 "Hg10 mi
8:53 PM54 °FClear.No wind90%30.10 "Hg10 mi
7:53 PM58 °FSunny.No wind81%30.09 "Hg10 mi
6:53 PM70 °FSunny.8 mph46%30.07 "Hg10 mi
5:53 PM72 °FSunny.7 mph43%30.06 "Hg10 mi
4:53 PM73 °FSunny.9 mph43%30.07 "Hg10 mi
3:53 PM72 °FSunny.5 mph44%30.08 "Hg10 mi
2:53 PM72 °FSunny.9 mph44%30.09 "Hg10 mi
1:53 PM71 °FSunny.9 mph45%30.10 "Hg10 mi
12:53 PM70 °FSunny.8 mph47%30.09 "Hg10 mi
11:53 AM68 °FSunny.9 mph53%30.11 "Hg10 mi
10:53 AM65 °FSunny.3 mph66%30.12 "Hg10 mi
9:53 AM60 °FSunny.3 mph75%30.11 "Hg9 mi
8:53 AM54 °FSunny.No wind90%30.09 "Hg7 mi
7:53 AM45 °FFog.No wind97%30.07 "Hg4 mi
6:53 AM45 °FFog.No wind97%30.06 "Hg6 mi
5:53 AM46 °FFog.No wind96%30.04 "Hg4 mi
5:00 AM46 °FFog.No wind93%30.04 "Hg3 mi
3:53 AM47 °FFog.No wind97%30.04 "Hg5 mi
2:53 AM47 °FFog.No wind97%30.04 "Hg5 mi
1:53 AM48 °FFog.No wind96%30.03 "Hg4 mi
12:53 AM49 °FFog.No wind97%30.03 "Hg4 mi
11:53 PM
Sep 17
49 °FFog.No wind97%30.03 "Hg4 mi
10:53 PM50 °FFog.No wind96%30.02 "Hg5 mi
Weather by CustomWeather, © 2014

See weather overviewHow to use our weather pages